www.pogodaiklimat.ru
Время
(UTC), дата
09 7.12
12 7.12
15 7.12
18 7.12
21 7.12
00 8.12
03 8.12
06 8.12
09 8.12
12 8.12
15 8.12
18 8.12
21 8.12
00 9.12
03 9.12
06 9.12
09 9.12
12 9.12
15 9.12
18 9.12
21 9.12
00 10.12
03 10.12
06 10.12
09 10.12
12 10.12
15 10.12
18 10.12
21 10.12
00 11.12
03 11.12
06 11.12
09 11.12
12 11.12
15 11.12
18 11.12
21 11.12
00 12.12
03 12.12
06 12.12
09 12.12
12 12.12
15 12.12
18 12.12
21 12.12
00 13.12
03 13.12
06 13.12
09 13.12
12 13.12
15 13.12
18 13.12
21 13.12
00 14.12
03 14.12
Ветер
(напр.,м/с)
Видим. Явления Облачность Т
(С)
Тd
(С)
f
(%)
Тe
(С)
Тes
(С)
Комфортность P
(гПа)
Po
(гПа)
Тmin
(С)
Tmax
(С)
R
(мм)
R24
(мм)
S
(см)
В 10-14
{19}
4500 м метель {ливн. осадки} 4/3 300 м
[Sc Ac trans]
-19.0 -19.0 100 -32 -32 опасность
обморожения
988.5 986.6
В 9-11
{14}
17 км сильный позёмок {ливн. осадки} 8/4 600 м
[Sc Ac trans]
-19.4 -20.0 95 -32 -32 опасность
обморожения
986.4 984.5 -16.5 0.8
В 6
{11}
6000 м слаб. снег {метель} 10/0
[Ac As]
-19.5 -20.1 95 -30 -30 прохладно 985.4 983.5
В 5 20 км {снег, метель} 8/3 600 м
[Sc Ac trans]
-22.0 -23.2 90 -33 -33 опасность
обморожения
984.7 982.8
В 5 20 км 3/0
[Ac trans Ci fib]
-22.7 -23.3 95 -33 -33 опасность
обморожения
984.8 982.9
В 4 20 км 3/0
[Ac trans]
-23.1 -23.6 96 -33 -33 опасность
обморожения
985.2 983.3 -23.5 0.2 13
В 3 18 км ясно -23.5 -24.1 95 -32 -32 опасность
обморожения
986.1 984.2 -23.8
Ю 1 20 км 3/0
[Ac trans]
-20.8 -21.4 95 -24 -24 по сезону 987.6 985.7
Ю 3 19 км 3/0
[Ac trans]
-20.9 -21.5 95 -29 -29 прохладно 989.3 987.9
Ю 4 18 км 3/0
[Ac trans]
-20.0 -20.6 95 -29 -29 прохладно 991.1 989.6 -20.0
Ю 5 18 км 3/0
[Ac trans]
-19.0 -19.6 95 -29 -29 прохладно 992.3 990.8
Ю 7
{10}
18 км позёмок 6/0
[Ac trans]
-18.2 -18.8 95 -29 -29 прохладно 993.5 992.0
Ю 7 17 км позёмок 9/0
[Ac trans Ci fib]
-15.9 -19.0 77 995.2 993.3
Ю 6
{10}
20 км позёмок 9/8 420 м
[Sc Ac trans]
-14.7 -15.3 95 -24 -24 по сезону 997.1 995.2 -20.1 13
Ю 7-10
{10}
20 км позёмок {снег} 4/0
[Ac trans Ci fib]
-16.2 -17.5 90 -27 -27 холодно 998.4 996.5
ЮВ 7-10
{10}
20 км позёмок {снег} 4/0
[Ac trans Ci fib]
-16.6 -17.9 90 -27 -27 холодно 999.2 997.3
Ю 7
{10}
20 км позёмок 6/0
[Ac trans Ci fib]
-13.1 -13.7 95 -23 -23 по сезону 999.6 998.1
Ю 10-14
{14}
20 км сильный позёмок 6/0
[Ac trans Ci fib]
-15.3 -15.9 95 -27 -27 холодно 999.9 998.5 -12.9 0.1
ЮВ 10-13
{16}
20 км сильный позёмок 9/0
[Ac trans]
-14.3 -14.9 95 -26 -26 прохладно 1000.8 999.3
ЮВ 12-16
{18}
600 м слаб. ливневой снег {метель} 9/9 210 м
[Cb cap]
-12.4 -12.4 100 -24 -24 по сезону 1001.4 999.5
ЮВ 14-18
{20}
600 м слаб. ливневой снег {метель} 9/9 180 м
[Cb cap]
-12.4 -12.4 100 -25 -25 прохладно 1001.6 999.7
ЮВ 15-20
{21}
300 м слаб. ливневой снег {метель} 9/9 210 м
[Cb cap]
-13.4 -13.4 100 -27 -27 по сезону 1001.7 1000.2 -15.3 0.3 12
ЮВ 14-18
{20}
600 м слаб. ливневой снег {метель} 9/9 210 м
[Cb cap]
-14.5 -14.5 100 -28 -28 по сезону 1003.1 1001.2
ЮВ 13-18
{18}
600 м слаб. ливневой снег {метель} 9/9 210 м
[Cb cap]
-15.8 -15.8 100 -29 -29 по сезону 1002.8 1001.3
ЮВ 13-16
{18}
3500 м метель {ливн. осадки} 8/0
[Ac trans Ci fib]
-16.1 -16.7 95 -30 -30 по сезону 1003.7 1001.8
ЮВ 12-15
{17}
3500 м метель {ливн. осадки} 9/6 480 м
[Sc Ac trans]
-15.7 -16.3 95 -29 -29 по сезону 1003.7 1001.8 -13.4 5
ЮВ 12-16
{17}
1800 м сильная метель 9/0
[Ac trans]
-15.7 -16.3 95 -29 -29 по сезону 1003.3 1001.4
ЮВ 12-15
{17}
5000 м метель 8/0
[Ac trans]
-15.8 -17.0 90 -29 -29 по сезону 1003.3 1001.4
ЮВ 11-13
{15}
5000 м метель 9/0
[Ac trans]
-15.5 -16.1 95 -28 -28 по сезону 1003.5 1002.0
ЮВ 10-14
{14}
5000 м метель 9/0
[Ac trans]
-15.9 -16.5 95 -28 -28 по сезону 1004.0 1002.5 -16.2 12
ЮВ 8-10
{14}
20 км сильный позёмок 8/0
[Ac trans]
-17.5 -18.1 95 -29 -29 по сезону 1004.8 1003.3 -17.5
ЮВ 7
{10}
20 км позёмок 3/0
[Ac trans]
-18.8 -19.4 95 -30 -30 по сезону 1005.5 1004.0
В 5 17 км {метель} 4/0
[Ci fib]
-19.5 -20.1 95 -29 -29 по сезону 1007.4 1005.5
В 4 20 км ясно -19.3 -21.5 83 -28 -28 по сезону 1008.5 1006.6 -15.9
В 4 20 км ясно -19.7 -21.1 89 -29 -29 по сезону 1009.2 1007.3
В 4 20 км ясно -19.9 -20.5 95 -29 -29 по сезону 1010.6 1008.7
В 5 22 км 4/0
[Ci fib]
-20.9 -21.5 95 -31 -31 опасность
обморожения
1011.9 1009.9
В 3 21 км 6/0
[Ci fib]
-20.5 -21.1 95 -28 -28 по сезону 1012.2 1010.2 -22.8 12
В 5 20 км 6/0
[Ci fib]
-21.2 -22.4 90 -32 -32 опасность
обморожения
1012.8 1010.8
В 3 21 км 1/0
[Ci fib]
-23.3 -24.5 90 -32 -32 опасность
обморожения
1013.1 1011.1
В 4 20 км ясно -23.1 -24.2 91 -33 -33 опасность
обморожения
1012.8 1011.3
В 4 20 км ясно -23.3 -23.9 95 -33 -33 опасность
обморожения
1012.8 1011.2 -19.8
В 3 20 км 3/0
[Ci fib]
-23.6 -24.2 95 -32 -32 опасность
обморожения
1012.7 1011.2
СВ 3 20 км 6/0
[Ci]
-22.7 -23.3 95 -31 -31 опасность
обморожения
1012.8 1011.3
СВ 3 21 км 8/0
[Ci fib]
-22.8 -24.0 90 -31 -31 опасность
обморожения
1013.3 1011.3
СВ 3 19 км 8/0
[Ci fib]
-23.0 -24.2 90 -31 -31 опасность
обморожения
1012.6 1010.6 -24.1 12
СВ 2 17 км 9/0
[Ac trans Ci fib]
-21.9 -22.7 93 -28 -28 по сезону 1012.3 1010.3
СВ 2 3700 м дымка 10/10 100 м
[St]
-20.3 -20.3 100 -26 -26 по сезону 1012.0 1010.0
СВ 1 700 м переохл. туман ?/? -20.4 -20.4 100 -23 -23 тепло 1011.4 1009.9
С 1 6000 м дымка {туман} 10/10 180 м
[St]
-20.2 -20.2 100 -23 -23 тепло 1011.3 1009.8 -19.2
С 2 6000 м дымка 10/10 150 м
[St]
-20.9 -20.9 100 -27 -27 по сезону 1011.0 1009.5
С 1 800 м переохл. туман [диам. изморози 31 мм] 9/0
[Ac trans]
-20.5 -20.5 100 -24 -24 тепло 1010.8 1009.3
С 1 800 м переохл. туман [диам. изморози 35 мм] 9/0
[Ac trans]
-18.8 -18.8 100 -22 -22 тепло 1010.5 1009.0
С 1 6000 м дымка {туман} [диам. изморози 38 мм] 10/10 150 м
[St]
-17.8 -17.8 100 -21 -21 тепло 1010.6 1009.1 -20.9 12
штиль 0 3700 м дымка [диам. изморози 42 мм] 10/10 120 м
[St]
-19.9 -19.9 100 -20 -20 тепло 1011.1 1009.6
Местоположение метеостанции Остров Визе (Красноярский край, Россия): широта 79.50 долгота 76.98 высота над уровнем моря 14 м.
В архиве по умолчанию представлена погода на Острове Визе за последнюю неделю. Архивные данные за месяц целиком и за предыдущие месяцы, начиная с января 2011 года, Вы можете получить, выбрав интересующий диапазон дат из раскрывающегося списка и нажав кнопку "Найти!".
*Определитесь, кто Вы:
Внимание! Время в таблицах - всемирное. Для получения местного времени необходимо прибавить поправку, которая равна 7 ч.
Смотрите также архив погоды в соседних городах и на ближайших метеорологических станциях:
Партнеры нашего сайта:      
Пояснения к столбцам:
  • Ветер - указаны скорость ветра в м/с - средняя за 10 мин, порывы в срок и между сроками (в фигурных скобках) и направление, откуда дует ветер: С - северный,
  • СВ - северо-восточный, В - восточный, ЮВ - юго-восточный, Ю - южный, ЮЗ - юго-западный, З - западный, СЗ - северо-западный.
  • Видимость - горизонтальная дальность видимости в метрах или километрах. При видимости от 1 до 10 км при отсутствии осадков обычно наблюдается дымка, при ухудшении видимости до 1 км и менее - туман. В сухую погоду видимость может ухудшаться дымом, пылью или мглою.
  • Явления - указаны атмосферные явления, наблюдавшиеся в срок или в последний час перед сроком; фигурными скобками обозначены явления, наблюдавшиеся между сроками (за 1-3 часа до срока); квадратными скобками обозначены град или гололедные отложения с указанием их диаметра в мм.
  • Облачность - указаны через наклонную черту общая и нижняя облачность в баллах и высота нижней границы облаков в метрах; квадратными скобками обозначены формы облаков: Ci - перистые, Cs - перисто-слоистые, Cc - перисто-кучевые, Ac - высококучевые, As - высокослоистые, Sc - слоисто-кучевые, Ns - слоисто-дождевые, Cu - кучевые, Cb - кучево-дождевые. Подробнее классификацию облаков см. в Атласе облаков (PDF).
  • T - Температура воздуха - температура, измеренная на высоте 2 м над землей.
  • Td - Температура точки росы - температура, при понижении до которой содержащийся в воздухе водяной пар достигнет насыщения.
  • f - Относительная влажность воздуха - влажноcть воздуха, измеренная на высоте 2 м над землей.
  • Te - Эффективная температура - температура, которую ощущает одетый по сезону человек в тени. Характеристика душности погоды. При расчете учитывается влияние влажности воздуха и скорости ветра на теплоощущения человека.
  • Tes - Эффективная температура на солнце - температура, которую ощущает человек, с поправкой на солнечный нагрев. Характеристика знойности погоды. Зависит от высоты солнца над горизонтом, облачности и скорости ветра. Ночью, в пасмурную погоду, а также при ветре 12 м/с и более поправка равна нулю.
  • P - Атмосферное давление - приведенное к уровню моря атмосферное давление.
  • Po - Атмосферное давление - измеренное на уровне метеостанции атмосферное давление.
  • Tmin - Минимальная температура - минимум температуры воздуха на высоте 2 м над землей.
  • Tmax - Максимальная температура - максимум температуры воздуха на высоте 2 м над землей.
  • R - Количество осадков - Количество выпавших осадков за период времени, мм. При наведении курсора мыши на число - период времени, за который выпало указанное количество осадков.
  • R24 - Количество осадков - Количество выпавших осадков за 24 часа, мм.
  • S - Снежный покров - Высота снежного покрова, см. При наведении курсора мыши на число - состояние снежного покрова и степень покрытия местности в баллах.